TIME,DELAY(SENSOR),PRES,T(CTD),SAL,OXYGEN,RAWTEMP,T(OPTODE),TCPHASE,TURBIDITY,TURBIDITY_GAIN,FLUOR,BETA,CDOM,ED411.5,ED443.8,ED489.6,PAR,COMP,TILT,TILTY(TILT),CHECK
1341943997,6468,220.3000030517578000,4.9755001068115230,34.9733009338378900,362.7455139160156000,652.9364013671875000,4.9545989036560060,32.4061813354492200,16,3,48,109,62,2147636593,2147396022,2147295213,2148322043,1082,2,-4,47306
1341944057,6469,217.0099945068359400,4.9773998260498050,34.9728012084960940,362.8150024414062500,652.8696289062500000,4.9567761421203610,32.4030609130859400,16,3,50,112,62,2147636626,2147393453,2147297718,2148322162,752,2,-4,54371
1341944117,6468,213.7299957275390600,4.9794001579284670,34.9728012084960940,362.8200988769531000,652.8071289062500000,4.9588088989257810,32.4016990661621100,16,3,49,128,62,2147638372,2147393764,2147297151,2148318971,447,2,-4,16296
1341944177,6468,210.5099945068359400,4.9812998771667480,34.9729003906250000,362.8049011230469000,652.7421264648438000,4.9609241485595700,32.4009208679199200,16,3,49,113,64,2147639875,2147392625,2147296419,2148319638,3510,2,-4,41326
1341944237,6467,207.2899932861328000,4.9847002029418945,34.9729995727539060,362.7986145019531000,652.6267089843750000,4.9646759033203125,32.3992195129394500,14,3,49,201,62,2147638253,2147394527,2147298856,2148319359,3147,2,-4,56049
1341944299,6467,204.0000000000000000,4.9897999763488770,34.9729995727539060,362.6228942871094000,652.4702758789062000,4.9697651863098145,32.4017906188964840,15,3,49,122,62,2147637380,2147393064,2147298943,2148321800,2908,2,-4,55901
1341944359,6469,200.8099975585937500,5.0001997947692870,34.9734001159668000,362.2567138671875000,652.1776733398438000,4.9792819023132320,32.4083595275878900,16,3,49,115,62,2147637439,2147395378,2147300026,2148323849,2642,2,-4,13538
1341944419,6470,197.6600036621093800,5.0125999450683590,34.9739990234375000,361.5965881347656000,651.8004150390625000,4.9915518760681150,32.4227294921875000,16,3,49,115,63,2147636474,2147392132,2147302879,2148322088,2405,2,-4,29486
1341944479,6469,194.5200042724609400,5.0178999900817870,34.9747009277343750,361.4493103027344000,651.6115722656250000,4.9976940155029300,32.4238510131835940,16,3,50,111,62,2147635756,2147394527,2147301540,2148321956,2236,2,-4,42366
1341944539,6466,191.3800048828125000,5.0244002342224120,34.9752998352050800,361.5263977050781000,651.4083251953125000,5.0043048858642580,32.4178504943847660,17,3,50,113,63,2147636004,2147396872,2147301654,2148325403,2074,2,-4,6263
1341944603,6468,188.0099945068359400,5.0321002006530760,34.9757995605468750,361.4567871093750000,651.2064819335938000,5.0108661651611330,32.4164199829101560,16,3,50,114,62,2147632877,2147393910,2147307181,2148324402,1930,2,-6,34168
1341944663,6468,184.8200073242187500,5.0448999404907230,34.9763984680175800,361.0635986328125000,650.7739257812500000,5.0249328613281250,32.4212989807128900,60,3,50,121,62,2147635899,2147394674,2147306732,2148324049,1813,2,-4,920
1341944727,6468,181.4199981689453000,5.0602002143859860,34.9779014587402340,360.7629089355469000,650.3189697265625000,5.0397191047668460,32.4226608276367200,16,3,49,114,62,2147637919,2147391821,2147312904,2148324127,1720,2,-4,55690
1341944787,6470,178.1999969482422000,5.0746998786926270,34.9795989990234400,360.4273986816406000,649.9039916992188000,5.0532069206237790,32.4260597229003900,16,3,49,120,62,2147633814,2147394015,2147316854,2148323912,1540,2,-4,33801
1341944851,6467,174.7299957275390600,5.0876998901367190,34.9802017211914060,360.1458129882812500,649.5090942382812000,5.0660419464111330,32.4279098510742200,16,3,49,116,62,2147635465,2147397114,2147321485,2148324794,1385,2,-4,52814
1341944913,6465,171.3200073242187500,5.0975999832153320,34.9810981750488300,359.9443969726562500,649.2069091796875000,5.0758609771728520,32.4290084838867200,22,3,50,118,62,2147634065,2147396941,2147325069,2148324163,1142,2,-5,59770
1341944977,6467,167.7799987792968800,5.1098999977111820,34.9823989868164060,359.9289855957031000,648.8250732421875000,5.0882678031921390,32.4228515625000000,16,3,50,175,63,2147635131,2147396461,2147330664,2148326500,946,2,-5,56427
1341945037,6468,164.4499969482422000,5.1273999214172360,34.9836006164550800,359.9041137695312500,648.3182983398438000,5.1047310829162600,32.4146499633789060,55,3,50,138,63,2147632940,2147401014,2147339697,2148325622,634,2,-5,13804
1341945101,6468,160.9199981689453000,5.1430997848510740,34.9859008789062500,359.7109069824219000,647.8010864257812000,5.1215310096740720,32.4116401672363300,16,3,50,120,62,2147636781,2147401764,2147347839,2148326189,312,2,-4,34945
1341945161,6467,157.6000061035156200,5.1568999290466310,34.9864006042480500,359.4242858886719000,647.3309936523438000,5.1367988586425780,32.4122810363769500,11,3,50,123,62,2147638422,2147401887,2147353128,2148328342,3566,2,-4,30127
1341945225,6466,154.1100006103515600,5.1672000885009770,34.9879989624023440,359.4780883789062500,647.0662231445312000,5.1453971862792970,32.4059791564941400,16,3,48,121,62,2147638326,2147401490,2147354925,2148328502,3278,2,-4,47927
1341945285,6468,150.8600006103515600,5.1705999374389650,34.9878997802734400,359.3240051269531000,646.8776245117188000,5.1515197753906250,32.4073295593261700,11,3,49,121,62,2147637206,2147402573,2147353210,2148329128,3049,2,-4,19709
1341945349,6468,147.4600067138672000,5.1887998580932620,34.9896011352539060,359.2745056152344000,646.3458251953125000,5.1687850952148440,32.3993492126464840,16,3,50,127,63,2147640594,2147407423,2147360210,2148329818,2838,2,-4,44880
1341945409,6466,144.3699951171875000,5.2058000564575195,34.9916992187500000,359.2370910644531000,645.8594970703125000,5.1845722198486330,32.3920707702636700,19,3,50,121,62,2147635729,2147405787,2147353851,2148329595,2766,2,-4,64598
1341945473,6468,141.1000061035156200,5.2157001495361330,34.9925003051757800,359.3924865722656000,645.5728759765625000,5.1938719749450680,32.3818588256835940,16,3,49,123,62,2147637041,2147408018,2147377649,2148334289,2589,2,-4,9125
1341945535,6468,138.0099945068359400,5.2265000343322750,34.9936981201171900,359.2090148925781000,645.2014770507812000,5.2059268951416020,32.3812904357910160,16,3,49,118,62,2147638111,2147407035,2147397156,2148333769,2411,2,-4,61619
1341945599,6467,134.8800048828125000,5.2392997741699220,34.9954986572265600,359.0967102050781000,644.8195800781250000,5.2183189392089840,32.3781585693359400,16,3,50,136,62,2147635858,2147409051,2147383903,2148333229,2357,2,-6,38986
1341945659,6467,132.0700073242187500,5.2487998008728030,34.9961013793945300,359.0769958496094000,644.4982910156250000,5.2287430763244630,32.3727912902832000,10,3,50,118,62,2147636360,2147410193,2147391318,2148333467,2123,2,-4,52242
1341945723,6469,129.1499938964843800,5.2578001022338870,34.9967994689941400,359.1040954589844000,644.2335205078125000,5.2373328208923340,32.3673591613769500,16,3,50,120,62,2147638710,2147416480,2147430719,2148338083,1874,2,-5,2686
1341945783,6467,126.4800033569336000,5.2673997879028320,34.9977989196777340,359.0999145507812500,643.9409179687500000,5.2468261718750000,32.3623580932617200,16,3,50,122,62,2147639515,2147421270,2147450591,2148341951,1739,2,-5,40517
1341945847,6467,123.7500000000000000,5.2715001106262210,34.9985008239746100,359.0451049804687500,643.7758178710938000,5.2521781921386720,32.3609199523925800,16,3,50,130,62,2147637288,2147417068,2147419126,2148340443,1625,2,-4,21466
1341945907,6468,121.1500015258789000,5.2782001495361330,34.9986991882324200,359.0533142089844000,643.5803833007812000,5.2585182189941410,32.3570899963378900,16,3,50,128,62,2147636662,2147425165,2147454468,2148345896,1448,2,-4,43272
1341945971,6465,118.2900009155273400,5.2857999801635740,34.9991989135742200,359.0799865722656000,643.3333740234375000,5.2665290832519530,32.3518791198730500,21,3,50,125,62,2147639162,2147425439,2147472456,2148345051,1188,2,-4,53548
1341946031,6467,115.4899978637695300,5.2926001548767090,35.0000000000000000,359.0559997558594000,643.1655273437500000,5.2719750404357910,32.3497581481933600,16,3,50,127,63,2147639044,2147432607,2147495734,2148349338,1009,2,-6,30299
1341946095,6467,112.3700027465820300,5.2978000640869140,35.0004997253418000,359.0284118652344000,642.9506225585938000,5.2789440155029300,32.3467292785644500,16,3,50,124,62,2147640520,2147441677,2147517805,2148355154,826,2,-6,3266
1341946157,6468,109.3000030517578100,5.3007998466491700,35.0003013610839840,358.9385070800781000,642.8836059570312000,5.2811150550842285,32.3487586975097660,17,3,52,126,62,2147641608,2147447094,2147545731,2148359039,678,2,-6,5197
1341946221,6467,106.1100006103515600,5.3014001846313480,35.0001983642578100,358.9714965820312500,642.8543090820312000,5.2820639610290530,32.3471794128418000,16,3,52,137,62,2147641814,2147449965,2147564187,2148359574,354,2,-4,56225
1341946281,6466,103.1299972534179700,5.3070998191833500,35.0000000000000000,358.9379882812500000,642.6782836914062000,5.2877688407897950,32.3448982238769500,26,3,53,122,62,2147642733,2147452379,2147583716,2148365453,190,2,-6,17309
1341946345,6466,100.0400009155273400,5.3151001930236820,35.0010986328125000,358.5118103027344000,642.3953247070312000,5.2969460487365720,32.3536491394043000,36,3,52,136,63,2147648205,2147472319,2147646212,2148374153,3585,2,-4,62635
1341946405,6467,97.1999969482421900,5.3267002105712890,35.0021018981933600,358.5292968750000000,642.1099853515625000,5.3061962127685550,32.3481407165527340,16,3,52,147,62,2147648301,2147472241,2147647020,2148372717,3215,2,-5,45885
1341946469,6467,94.2200012207031200,5.3334999084472660,35.0022010803222660,358.4826049804687500,641.8848876953125000,5.3134942054748535,32.3457298278808600,16,3,52,162,62,2147649151,2147501315,2147765238,2148395131,3038,2,-6,28748
1341946529,6467,91.4000015258789000,5.3361001014709470,35.0022010803222660,358.4635009765625000,641.8001098632812000,5.3162422180175780,32.3447799682617200,12,3,52,128,62,2147656900,2147525613,2147856694,2148411286,3058,2,-6,42105
1341946593,6469,88.4100036621093800,5.3320999145507810,35.0008010864257800,358.3757019042969000,641.8831787109375000,5.3135471343994140,32.3488693237304700,26,3,55,129,62,2147656698,2147544132,2147930706,2148422578,2925,2,-4,55952
1341946653,6469,85.6200027465820300,5.3364000320434570,34.9998016357421900,358.0105895996094000,641.7802734375000000,5.3168830871582030,32.3587417602539060,15,3,58,133,62,2147661846,2147570761,2148001787,2148439345,2691,2,-5,57054
1341946717,6468,82.7099990844726600,5.3417000770568850,35.0003013610839840,358.0549011230469000,641.5988769531250000,5.3227648735046390,32.3542289733886700,12,3,56,132,62,2147666372,2147586897,2148037119,2148447387,2596,2,-5,56269
1341946779,6468,80.0100021362304700,5.3543000221252440,35.0012016296386700,358.0956115722656000,641.2656250000000000,5.3335671424865720,32.3469810485839840,16,3,53,135,62,2147672502,2147599034,2148060250,2148453032,2482,2,-5,48327
1341946843,6466,77.3600006103515600,5.3656997680664060,35.0022010803222660,358.1178894042969000,640.8787841796875000,5.3461022377014160,32.3393592834472660,20,3,54,137,62,2147684740,2147636223,2148179021,2148476091,2389,2,-5,65159
1341946903,6468,75.0299987792968800,5.3906998634338380,35.0036010742187500,358.0635070800781000,640.2042846679688000,5.3679537773132320,32.3292083740234400,15,3,52,134,62,2147682824,2147614083,2148071158,2148458298,2406,2,-4,9895
1341946995,6468,70.7799987792968800,5.4036998748779300,35.0047988891601560,358.1467895507812500,639.7559814453125000,5.3824791908264160,32.3185081481933600,35,3,54,138,63,2147716726,2147749823,2148555076,2148555126,2229,2,-4,36723
1341947055,6467,67.0500030517578100,5.4214000701904300,35.0040016174316400,357.7083129882812500,639.1870727539062000,5.4009041786193850,32.3227500915527340,13,3,56,139,64,2147743867,2147856625,2148926614,2148635835,1921,2,-6,28331
1341947119,6467,62.9500007629394500,5.4337000846862790,35.0041007995605500,357.4852905273437500,638.8200073242188000,5.4127941131591800,32.3234901428222660,16,3,56,137,62,2147788456,2147981270,2149312991,2148725105,1526,2,-6,13427
1341947179,6467,59.0699996948242200,5.4429001808166500,35.0023002624511700,357.5213928222656000,638.5289916992188000,5.4222178459167480,32.3170509338378900,14,3,59,143,64,2147791208,2147920735,2148975107,2148673297,1326,2,-5,15724
1341947267,6468,54.1300010681152340,5.5205998420715330,34.9990997314453100,358.0786132812500000,636.4733886718750000,5.4887537956237790,32.2628707885742200,15,3,79,182,62,2147882294,2148217334,2149934843,2148901170,882,2,-5,40896
1341947327,6468,51.8499984741210940,5.5385999679565430,34.9990005493164060,358.7037963867187500,635.6616821289062000,5.5150151252746580,32.2282905578613300,15,3,88,172,62,2147897440,2148224154,2149918554,2148911862,782,2,-6,38300
1341947391,6468,49.8300018310546900,5.5711998939514160,34.9981994628906250,359.1116943359375000,634.7465209960938000,5.5446171760559080,32.1991691589355500,14,3,93,173,62,2147932493,2148285027,2150050198,2148958861,206,2,-6,34706
1341947453,6469,48.2200012207031250,5.6034002304077150,34.9976005554199200,359.7374877929687500,633.6843872070312000,5.5789589881896970,32.1604194641113300,20,3,109,153,62,2147961929,2148314761,2150089073,2148982962,3576,2,-6,52383
1341947541,6469,45.5400009155273440,5.6444001197814940,34.9959983825683600,360.6936950683594000,632.4611816406250000,5.6184978485107420,32.1084899902343750,16,3,134,181,62,2148055008,2148454399,2150412593,2149097946,2781,2,-6,53783
1341947601,6468,42.6599998474121100,5.7245001792907715,34.9940986633300800,361.4663085937500000,629.8601074218750000,5.7025218009948730,32.0382003784179700,24,3,193,205,62,2148232264,2148770312,2151114385,2149318728,2933,2,-6,62705
1341947665,6470,38.9700012207031250,5.7923998832702640,34.9943008422851560,363.3951110839844000,627.4736938476562000,5.7795491218566895,31.9354591369628900,92,3,301,254,62,2148610303,2149521878,2153018586,2149890994,2816,2,-5,26986
1341947725,6470,34.9300003051757800,5.9567999839782715,34.9930000305175800,367.2674865722656000,622.8884277343750000,5.9273872375488280,31.7344799041748050,32,3,304,296,64,2149101864,2150364982,2154748292,2150465686,2539,2,-6,56341
1341947813,6471,30.1200008392334000,6.1241998672485350,34.9917984008789060,374.0126037597656000,617.8273925781250000,6.0903148651123050,31.4401302337646500,51,3,367,373,62,2150165832,2151975478,2157655332,2151477622,1765,2,-4,56588
1341947873,6470,28.0900001525878900,6.1454000473022460,34.9933013916015600,376.4957885742187500,616.9730224609375000,6.1177940368652340,31.3500003814697270,51,3,386,391,63,2151021590,2153285590,2160168150,2152350285,1687,2,-6,43981
1341947937,6471,25.9400005340576170,6.2325000762939450,34.9896011352539060,378.4898071289062500,614.0659790039062000,6.2112388610839840,31.2407798767089840,102,3,407,557,64,2151173238,2152986312,2158329128,2151870879,1659,2,-5,10302
1341947997,6469,24.1399993896484380,6.3274998664855960,34.9903984069824200,385.2640991210937500,611.3532714843750000,6.2983608245849610,30.9939594268798830,91,3,501,645,64,2153177563,2156055003,2164007857,2153846244,1939,1,-6,49066
1341948085,6469,21.5100002288818360,6.7133002281188965,34.9822006225585940,393.8434143066406000,599.7332153320312000,6.6707439422607420,30.5523796081542970,121,3,436,960,65,2157352890,2161665041,2172985663,2157133558,1977,2,-6,53605
1341948147,6470,19.4099998474121100,6.9128999710083010,34.9828987121582000,401.9038085937500000,593.1953125000000000,6.8796920776367190,30.2184391021728500,130,3,378,949,66,2162331442,2167990665,2182557315,2160727081,1663,3,-5,15833
1341948237,6472,17.2999992370605470,7.7273001670837400,34.9748001098632800,407.5083007812500000,567.3447265625000000,7.7020130157470700,29.6512107849121100,129,3,311,975,62,2170484342,2176318536,2191485750,2164444210,1644,1,-7,54507
1341948349,6468,14.0000000000000000,9.5144996643066400,34.9361991882324200,392.9101867675781000,496.8717041015625000,9.9155216217041020,28.9838294982910160,107,3,248,695,59,2187752465,2194484009,2211892497,2173720982,1405,1,-9,9650
1341948423,6470,11.5699996948242190,11.1745004653930660,34.9732017517089840,372.9461059570312500,459.0317077636719000,11.0893201828002930,29.0066108703613280,84,3,253,534,60,2196595464,2203784342,2222041609,2178961622,1352,-1,-8,1252
1341948503,6469,9.1999998092651370,11.4984998703002930,34.9901008605957000,363.4761047363281000,446.8713073730469000,11.4646596908569340,29.1144790649414060,147,3,212,545,58,2216228383,2225334248,2246668585,2192268552,1312,4,-6,24582
1341948577,6470,5.7699999809265140,11.5313997268676760,34.9949989318847660,360.2077941894531000,444.4830932617187500,11.5382795333862300,29.1791305541992200,75,3,172,531,57,2250019295,2260625677,2283976763,2219366331,1449,-2,-3,19169
1341948632,6469,2.8599998950958250,11.5586996078491210,34.9948997497558600,359.2569885253906000,443.5546875000000000,11.5668802261352540,29.1949901580810550,75,3,135,549,54,2277720607,2289956762,2314098422,2253434139,1321,-13,12,56315
1341948679,6469,1.6599999666213990,0.0000000000000000,0.0000000000000000,359.3778991699219000,443.4811096191406000,11.5691499710083000,29.1903591156005860,75,3,126,500,50,2286390746,2298970550,2324405211,2269189728,2167,-1,4,21183
